Current weather by "City, St" or "zip code"  
 

Current Conditions: Faith, SD

NULL


39.0 F

Last Updated on Oct 21 2021, 10:56 am MDT
Humidity: 70%
Wind Speed: S 8.1 mph
Barometer 30.21 in
Dewpoint: 30.0 F
Visibility: NULL mi
Precip: --
Heat Index: NA
Wind Chill: 33 F
Current conditions at:

Faith, SD (KD07)

Lat: 45.03194 Lon: 102.01917

Local Radar Image active severe weather and emergency alerts image image weather storm and storm spotter reports image weather observation monitoring service image
Local
Radar
Active
Alerts
Storm Reports Obs
Monitoring

Sign-up For Email & Text Message Weather Alert Notification Services



Advertise Here

Observation History for Faith, SD


Time Wind
(mph)
Vis
(mi)
Weather Precip (in) Temperature (F) Relative
Humidity
Wind
Chill
(F)
Heat
Index
(F)
Pressure
Air Dwpt altimeter
(in)
sea level
(mb)
Rmks
10:56 am MDT S 8.1 NULL NULL -- 39.0 30.0 70% 33 NA 30.21 1025.8
9:56 am MDT SW 9.2 NULL NULL -- 35.0 30.9 85% 28 NA 30.22 1026.3
8:56 am MDT S 5.8 NULL NULL -- 31.0 28.0 89% 25 NA 30.22 1026.2
7:56 am MDT SW 3.5 NULL NULL -- 26.0 24.1 92% NA NA 30.22 1026.5
6:56 am MDT N 0.0 NULL NULL -- 25.0 23.0 92% NA NA 30.22 1026.3
3:56 am MDT N 3.5 NULL NULL -- 24.0 23.0 96% NA NA 30.19 1025.5
2:56 am MDT NW 3.5 NULL NULL -- 27.0 24.1 89% NA NA 30.20 1025.6
1:56 am MDT NE 4.6 NULL NULL -- 27.0 24.1 89% 22 NA 30.19 1025.4
12:56 am MDT N 5.8 NULL NULL -- 27.0 24.1 89% 20 NA 30.20 1025.8
11:56 pm MDT N 5.8 NULL NULL -- 26.0 24.1 92% 19 NA 30.20 1025.9
9:56 pm MDT N 8.1 NULL NULL -- 29.0 25.0 85% 21 NA 30.18 1025.3
8:56 pm MDT N 9.2 NULL NULL -- 30.0 25.0 82% 22 NA 30.18 1025.3
7:56 pm MDT N 9.2 NULL NULL -- 33.0 25.0 72% 25 NA 30.18 1024.9
6:56 pm MDT N 10.4 NULL NULL -- 37.0 27.0 67% 30 NA 30.17 1024.6
5:56 pm MDT N 11.5 NULL NULL -- 38.0 26.1 62% 31 NA 30.15 1023.7
4:56 pm MDT N 16.1 NULL NULL -- 41.0 28.9 62% 33 NA 30.14 1023.0
3:56 pm MDT N 15.0 G 23.0 NULL NULL -- 40.0 30.0 68% 32 NA 30.14 1023.2
2:56 pm MDT N 17.3 NULL NULL -- 39.0 30.9 73% 30 NA 30.14 1023.2
1:56 pm MDT N 16.1 NULL NULL -- 38.0 30.9 76% 29 NA 30.15 1023.5
12:56 pm MDT N 17.3 NULL NULL -- 37.0 32.0 82% 27 NA 30.16 1024.0
11:56 am MDT N 16.1 NULL NULL -- 36.0 32.0 86% 26 NA 30.18 1024.7

Regional Weather Observation


Buffalo, SD (K2WX)

NULL
40.0 F

Hettinger, Hettinger Municipal Airport, ND (KHEI)

Fair
42.0 F

Philip, Philip Airport, SD (KPHP)

Fair
41.0 F

Ellsworth Air Force Base, SD (KRCA)

Fair
42.0 F

Rapid City, Rapid City Regional Airport, SD (KRAP)

Fair
40.0 F

Spearfish / Clyde Ice, SD (KSPF)

Fair
48.0 F

Advertise Here


Advertise Here